Date String (YYYY-MM-DD hh:mm:ss) UTC,Instrument flags,Ambient pressure (hPa),Sample flow (lpm),Bypass flow (lpm),Sample temperature (°C),Ambient temperature (°C),ASC tube jacket temperature (°C),LED temperature (°C),Box temperature (°C),Sample RH (%),Span deviation,Mass concentration (μg/m³),Mass concentration (μg/m³),Mass concentration (μg/m³)
DateTimeUTC,F1_M11,P_M11,Q1_M11,Q2_M11,T1_M11,T2_M11,T3_M11,T4_M11,T5_M11,U1_M11,ZSPAN_M11,X2_M11,X0_M11,X1_M11
2023-05-10 13:00:00,,0829.7,4.99,0.00,28.9,27.1,00.0,37.4,30.5,28.2,0000.1,0005.88,0010.04,0005.14
2023-05-10 13:01:00,,0829.6,4.99,0.00,28.9,27.1,00.0,37.4,30.6,28.1,0000.1,0005.77,0009.94,0005.05
2023-05-10 13:02:00,,0829.6,5.01,0.00,28.9,27.1,00.0,37.4,30.6,28.0,0000.2,0005.78,0010.09,0005.01
2023-05-10 13:03:00,,0829.7,5.02,0.00,28.9,27.2,00.0,37.4,30.6,27.9,-000.1,0005.77,0010.00,0004.99
2023-05-10 13:04:00,,0829.6,4.99,0.00,28.9,27.2,00.0,37.4,30.6,28.0,-000.4,0005.69,0009.87,0004.93
2023-05-10 13:05:00,,0829.7,4.99,0.00,28.9,27.2,00.0,37.4,30.6,27.9,-000.5,0005.65,0009.82,0004.90
2023-05-10 13:06:00,,0829.7,4.99,0.00,28.9,27.2,00.0,37.4,30.6,28.0,-000.5,0005.62,0009.79,0004.89
2023-05-10 13:07:00,,0829.7,5.01,0.00,28.9,27.3,00.0,37.4,30.6,28.0,-000.2,0005.64,0009.66,0004.91
2023-05-10 13:08:00,,0829.7,5.01,0.00,28.9,27.3,00.0,37.4,30.6,28.0,0000.2,0005.74,0009.67,0004.98
2023-05-10 13:09:00,,0829.6,4.99,0.00,29.0,27.3,00.0,37.4,30.6,27.9,0000.4,0005.74,0009.62,0004.98
2023-05-10 13:10:00,,0829.6,4.99,0.00,29.0,27.3,00.0,37.4,30.6,27.7,0000.5,0005.71,0009.54,0004.97
2023-05-10 13:11:00,,0829.7,5.00,0.00,29.0,27.3,00.0,37.4,30.6,27.7,0000.3,0005.77,0009.59,0005.00
2023-05-10 13:12:00,,0829.7,5.01,0.00,29.0,27.4,00.0,37.4,30.6,27.8,0000.2,0005.77,0009.49,0005.03
2023-05-10 13:13:00,,0829.7,5.01,0.00,29.0,27.4,00.0,37.4,30.6,27.9,0000.1,0005.79,0009.55,0005.06
2023-05-10 13:14:00,,0829.7,5.00,0.00,29.0,27.4,00.0,37.4,30.6,27.6,0000.1,0005.74,0009.81,0005.05
2023-05-10 13:15:00,,0829.8,5.00,0.00,29.0,27.4,00.0,37.4,30.6,27.7,0000.6,0005.74,0009.91,0005.06
2023-05-10 13:16:00,,0829.8,4.99,0.00,29.0,27.4,00.0,37.4,30.7,27.6,0000.5,0005.78,0010.54,0005.07
2023-05-10 13:17:00,,0829.8,4.99,0.00,29.0,27.4,00.0,37.4,30.7,27.7,0000.4,0005.77,0010.57,0005.04
2023-05-10 13:18:00,,0829.8,4.99,0.00,29.0,27.4,00.0,37.4,30.7,27.4,0000.5,0005.73,0010.89,0004.97
2023-05-10 13:19:00,,0829.8,5.01,0.00,29.0,27.4,00.0,37.4,30.7,27.3,0000.4,0005.66,0011.07,0004.90
2023-05-10 13:20:00,,0829.8,5.01,0.00,29.0,27.4,00.0,37.4,30.7,27.3,0000.2,0005.60,0010.97,0004.87
2023-05-10 13:21:00,,0829.8,5.00,0.00,29.0,27.4,00.0,37.4,30.7,27.2,0000.0,0005.59,0011.69,0004.85
2023-05-10 13:22:00,,0829.8,5.01,0.00,29.0,27.4,00.0,37.4,30.7,27.3,0000.4,0005.59,0011.86,0004.85
2023-05-10 13:23:00,,0829.8,5.01,0.00,29.1,27.5,00.0,37.4,30.7,27.2,0000.1,0005.58,0012.07,0004.83
2023-05-10 13:24:00,,0829.8,4.98,0.00,29.1,27.5,00.0,37.4,30.7,27.3,0000.1,0005.51,0011.94,0004.79
2023-05-10 13:25:00,,0829.8,4.99,0.00,29.1,27.5,00.0,37.4,30.7,27.5,0000.2,0005.48,0011.50,0004.76
2023-05-10 13:26:00,,0829.8,5.00,0.00,29.1,27.5,00.0,37.4,30.7,27.3,-000.1,0005.41,0011.30,0004.69
2023-05-10 13:27:00,,0829.8,5.02,0.00,29.1,27.5,00.0,37.4,30.7,27.0,-000.2,0005.31,0010.54,0004.63
2023-05-10 13:28:00,,0829.8,5.00,0.00,29.1,27.5,00.0,37.4,30.7,27.0,-000.1,0005.28,0011.46,0004.60
2023-05-10 13:29:00,,0829.8,5.01,0.00,29.1,27.5,00.0,37.4,30.7,27.1,-000.1,0005.27,0011.14,0004.62
2023-05-10 13:30:00,,0829.8,4.99,0.00,29.1,27.5,00.0,37.5,30.7,27.0,-000.1,0005.30,0010.95,0004.63
2023-05-10 13:31:00,,0829.8,4.99,0.00,29.1,27.5,00.0,37.5,30.7,26.9,0000.3,0005.27,0010.91,0004.61
2023-05-10 13:32:00,,0829.8,5.00,0.00,29.1,27.5,00.0,37.5,30.8,26.8,-000.1,0005.27,0010.49,0004.61
2023-05-10 13:33:00,,0829.7,5.02,0.00,29.1,27.5,00.0,37.5,30.7,26.9,-000.7,0005.28,0010.55,0004.59
2023-05-10 13:34:00,,0829.7,5.00,0.00,29.1,27.5,00.0,37.5,30.7,26.9,-000.1,0005.23,0010.37,0004.54
2023-05-10 13:35:00,,0829.8,5.00,0.00,29.1,27.5,00.0,37.5,30.7,26.7,0000.5,0005.17,0010.29,0004.49
2023-05-10 13:36:00,,0829.7,4.99,0.00,29.1,27.5,00.0,37.5,30.7,26.5,0000.6,0005.13,0010.22,0004.45
2023-05-10 13:37:00,,0829.7,5.01,0.00,29.1,27.6,00.0,37.5,30.7,26.4,0000.9,0005.12,0010.42,0004.41
2023-05-10 13:38:00,,0829.7,5.01,0.00,29.1,27.6,00.0,37.5,30.8,26.3,0000.9,0005.11,0010.63,0004.36
2023-05-10 13:39:00,,0829.7,5.01,0.00,29.1,27.6,00.0,37.5,30.8,26.0,0000.9,0005.04,0009.72,0004.30
2023-05-10 13:40:00,,0829.7,4.99,0.00,29.1,27.6,00.0,37.5,30.8,25.9,0000.8,0004.93,0009.39,0004.22
2023-05-10 13:41:00,,0829.7,5.00,0.00,29.1,27.6,00.0,37.5,30.8,25.6,0001.0,0004.81,0009.18,0004.14
2023-05-10 13:42:00,,0829.8,5.01,0.00,29.2,27.6,00.0,37.5,30.8,25.7,0000.8,0004.77,0009.14,0004.10
2023-05-10 13:43:00,,0829.8,5.01,0.00,29.2,27.6,00.0,37.5,30.8,25.7,0001.1,0004.67,0008.89,0004.03
2023-05-10 13:44:00,,0829.8,4.99,0.00,29.2,27.6,00.0,37.5,30.8,25.6,0001.0,0004.58,0008.49,0003.96
2023-05-10 13:45:00,,0829.8,4.99,0.00,29.2,27.6,00.0,37.5,30.8,25.7,0000.6,0004.53,0008.60,0003.92
2023-05-10 13:46:00,,0829.9,5.00,0.00,29.2,27.6,00.0,37.5,30.8,25.5,0000.5,0004.54,0008.64,0003.92
2023-05-10 13:47:00,,0829.9,5.00,0.00,29.2,27.6,00.0,37.5,30.8,25.6,0000.4,0004.56,0009.08,0003.92
2023-05-10 13:48:00,,0829.9,5.00,0.00,29.2,27.7,00.0,37.6,30.8,25.7,0000.0,0004.56,0009.11,0003.91
2023-05-10 13:49:00,,0829.9,5.01,0.00,29.2,27.7,00.0,37.6,30.9,25.6,0000.3,0004.55,0008.97,0003.92
2023-05-10 13:50:00,,0829.9,5.00,0.00,29.2,27.7,00.0,37.6,30.9,25.6,0000.4,0004.57,0008.94,0003.93
2023-05-10 13:51:00,,0829.9,4.99,0.00,29.2,27.7,00.0,37.6,30.9,25.9,-000.1,0004.62,0009.10,0003.95
2023-05-10 13:52:00,,0829.9,4.99,0.00,29.3,27.7,00.0,37.6,30.9,26.0,-000.5,0004.62,0009.14,0003.95
2023-05-10 13:53:00,,0829.9,5.01,0.00,29.3,27.7,00.0,37.6,30.9,26.1,-000.3,0004.63,0009.12,0003.94
2023-05-10 13:54:00,,0830.0,5.01,0.00,29.3,27.7,00.0,37.6,30.9,25.9,-000.1,0004.69,0009.30,0003.98
2023-05-10 13:55:00,,0830.0,4.98,0.00,29.3,27.7,00.0,37.6,30.9,25.8,0000.4,0004.73,0009.40,0004.02
2023-05-10 13:56:00,,0830.0,4.99,0.00,29.3,27.7,00.0,37.6,30.9,25.4,0001.0,0004.82,0009.36,0004.06
2023-05-10 13:57:00,,0830.0,5.00,0.00,29.3,27.7,00.0,37.6,30.9,25.3,0000.4,0004.91,0009.50,0004.09
2023-05-10 13:58:00,,0830.0,5.01,0.00,29.3,27.7,00.0,37.6,30.9,25.1,0000.0,0004.98,0009.43,0004.12
2023-05-10 13:59:00,,0830.0,5.00,0.00,29.3,27.7,00.0,37.6,31.0,25.2,0000.1,0005.02,0009.30,0004.15
